星链-37778(STARLINK-37778)

导读

STARLINK-37778(NORAD编号69352)是美国太空探索技术公司(SpaceX)星链低轨通信星座的组成卫星,属于星链V2 Mini系列,为第二代星链的小型化量产型号。该卫星通过猎鹰9号火箭发射入轨,运行于高度约550公里、倾角53度的近地轨道,设计搭载升级后的相控阵通信天线,可提供更高容量的低轨互联网接入服务,主要服务于北美、欧洲等区域的地面用户宽带连接需求。截至2026年6月,该卫星处于正常在轨运行状态,为星链全球超百万用户提供通信链路支撑。

Basic Information
目录编号:
69352
目录名称:
STARLINK-37778
国际标识:
2026-122Z
轨道中心:
EARTH
卫星名称:
星链-37778
卫星全名:
星链-37778(STARLINK-37778)
卫星状态:
在轨 (已飞行93 天)
发射日期:
2026-06-03 UTC
国别 :
美国 (US)
星等 :
--
Orbit Information
数据来源 国际轨道数据 AOE轨道数据
星历时间 2026-09-03T23:54:52+0800
14小时前
查看轨道信息
2026-09-03T23:00:00+0800
15小时前
查看轨道信息
半长轴 6843.691km 6843.702km
偏心率 0.0001546 0.0001723
轨道倾角 97.284° 97.285°
近地点辐角 93.739° 89.120°
升交点赤经 275.595° 275.560°
平近点角 266.403° 60.852°
近地点 464.495km 464.385km
远地点 466.613km 466.745km
周期 93.906分钟 93.907分钟
每日圈数 15.334414 15.334378
Detailed Information
固有亮度:
5
最大亮度:
2.5
卫星平台:
Starlink V1.0
覆盖范围:
全球
运营商:
太空探索技术公司
运营商所在国:
美国
制造商(研发单位):
太空探索技术公司
制造商所在国:
美国
使用方式:
暂无
Satellite Introduction
Starlink 计划是 SpaceX 推出的全球卫星互联网项目,通过发射低轨道卫星,为全球尤其是偏远地区提供高速、低延迟的互联网服务。自 2019 年起,Starlink 已部署数千颗卫星,旨在缩小全球数字鸿沟,推动互联网普及。该项目还为军事、航空等行业提供通信支持,带来广泛经济效益。
2D Orbit Map
3D Orbit Map
Orbit Altitude Analysis Chart
Orbit Inclination Analysis Chart
Orbit Comprehensive Analysis Chart
View Comprehensive Chart